Weather History for Ashtabula, OH

Change the Weather History Date:

Sunday, November 10, 2013

  Actual Average (KYNG) Record (KYNG)
Temperature  
Mean Temperature 47 °F 44 °F  
Max Temperature 52 °F 52 °F 68 °F (1949)
Min Temperature 39 °F 36 °F 16 °F (1991)
Degree Days  
Heating Degree Days 18 21  
Month to date heating degree days 200  
Since 1 July heating degree days 821  
Cooling Degree Days 0 0  
Month to date cooling degree days 0  
Year to date cooling degree days 544  
Moisture  
Dew Point 30 °F    
Average Humidity 57    
Maximum Humidity 73    
Minimum Humidity 49    
Precipitation  
Precipitation 0.05 in 0.09 in 1.37 in (2002)
Month to date precipitation 1.02  
Year to date precipitation 33.76  
Snow  
Snow 0.00 in 0.10 in - ()
Month to date snowfall 0.6  
Since 1 July snowfall 1.4  
Since 1 September snowfall 1.4  
Snow Depth -    
Sea Level Pressure  
Sea Level Pressure 30.09 in    
Wind  
Wind Speed 15 mph (WNW)    
Max Wind Speed 23 mph    
Max Gust Speed 36 mph    
Visibility 10 miles    
Events      
T = Trace of Precipitation, MM = Missing Value Source: NWS Daily Summary

Daily Weather History Graph

Daily Weather History Graph

Search for Another Location

Airport:

Trip Planner

Search our weather history database for the weather conditions in past years. The results will help you decide how hot, cold, wet, or windy it might be!

Date:

Astronomy

Nov. 10, 2013 Rise Set
Actual Time 7:06 AM EST 5:06 PM EST
Civil Twilight 6:36 AM EST 5:36 PM EST
Nautical Twilight 6:03 AM EST 6:09 PM EST
Astronomical Twilight 5:30 AM EST 6:42 PM EST
Moon 1:16 PM EST (11/10) No Moon Set
Length of Visible Light 10h 59m
Length of Day
10h 00m
First Quarter, 55% of the Moon is Illuminated
Nov 10
First Quarter
Nov 17
Full
Nov 25
Last Quarter
Dec 2
New
Dec 9
First Quarter

Hourly Weather History & Observations

Time (EST) Temp. Windchill Dew Point Humidity Pressure Visibility Wind Dir Wind Speed Gust Speed Precip Events Conditions
12:53 AM 52.0 °F - 37.9 °F 59% 29.91 in 10.0 mi West 18.4 mph 29.9 mph 0.01 in   Overcast
1:53 AM 50.0 °F - 37.9 °F 63% 29.91 in 10.0 mi West 16.1 mph 25.3 mph N/A   Mostly Cloudy
2:53 AM 48.9 °F - 37.0 °F 64% 29.91 in 10.0 mi West 11.5 mph - N/A   Mostly Cloudy
3:53 AM 48.0 °F - 36.0 °F 63% 29.91 in 10.0 mi West 16.1 mph 31.1 mph 0.01 in   Mostly Cloudy
4:53 AM 46.9 °F - 37.0 °F 68% 29.91 in 10.0 mi West 12.7 mph 21.9 mph 0.00 in   Overcast
5:53 AM 46.0 °F 39.3 °F 32.0 °F 58% 29.93 in 10.0 mi West 16.1 mph 31.1 mph N/A   Mostly Cloudy
6:53 AM 45.0 °F 36.4 °F 27.0 °F 49% 29.96 in 10.0 mi West 23.0 mph 35.7 mph N/A   Overcast
7:53 AM 44.1 °F 36.8 °F 30.0 °F 58% 29.98 in 10.0 mi West 16.1 mph 27.6 mph N/A   Unknown
8:53 AM 43.0 °F 36.0 °F 28.0 °F 56% 30.03 in 10.0 mi WNW 13.8 mph 27.6 mph 0.01 in   Overcast
9:53 AM 43.0 °F 35.4 °F 28.9 °F 58% 30.04 in 10.0 mi WNW 16.1 mph 27.6 mph N/A   Overcast
10:53 AM 44.1 °F 36.5 °F 28.0 °F 53% 30.07 in 10.0 mi WNW 17.3 mph 28.8 mph N/A   Overcast
11:53 AM 44.1 °F 36.5 °F 28.0 °F 53% 30.09 in 10.0 mi West 17.3 mph 31.1 mph N/A   Overcast
12:53 PM 44.1 °F 35.4 °F 28.9 °F 55% 30.10 in 10.0 mi WNW 21.9 mph 31.1 mph 0.01 in   Overcast
1:53 PM 44.1 °F 37.4 °F 28.9 °F 55% 30.12 in 10.0 mi West 13.8 mph 31.1 mph N/A   Overcast
2:53 PM 45.0 °F 38.2 °F 28.0 °F 52% 30.14 in 10.0 mi WNW 15.0 mph 31.1 mph N/A   Overcast
3:53 PM 45.0 °F 37.6 °F 28.0 °F 52% 30.16 in 10.0 mi WNW 17.3 mph 26.5 mph N/A   Overcast
4:53 PM 45.0 °F 37.9 °F 28.9 °F 53% 30.19 in 10.0 mi WNW 16.1 mph 24.2 mph N/A   Overcast
5:53 PM 45.0 °F 39.7 °F 28.9 °F 53% 30.21 in 10.0 mi NW 10.4 mph - 0.01 in   Overcast
6:53 PM 44.1 °F 39.5 °F 28.9 °F 55% 30.23 in 10.0 mi WNW 8.1 mph - N/A   Scattered Clouds
7:53 PM 44.1 °F 39.5 °F 28.9 °F 55% 30.25 in 10.0 mi WNW 8.1 mph 18.4 mph N/A   Overcast
8:53 PM 43.0 °F 40.3 °F 27.0 °F 53% 30.26 in 10.0 mi NW 4.6 mph - N/A   Scattered Clouds
9:53 PM 42.1 °F - 28.0 °F 58% 30.26 in 10.0 mi Calm Calm - N/A   Mostly Cloudy
10:53 PM 42.1 °F 40.2 °F 28.9 °F 60% 30.27 in 10.0 mi WNW 3.5 mph - N/A   Mostly Cloudy
11:53 PM 39.0 °F - 30.9 °F 73% 30.26 in 10.0 mi Calm Calm - N/A   Overcast